Regional Weather Roundup
Issued by NWS

Home | Current Version | Previous Version | Text Only | Print | Product List | Glossary On
Versions: 1 2 3 4 5 6 7 8 9 10 11 12 13 14 15 16 17 18 19 20 21 22 23 24 25 26 27 28 29 30 31 32 33 34 35 36 37 38 39 40 41 42 43 44 45 46 47 48 49 50
000
ASUS43 KOAX 281102
RWRNE

WEATHER ROUNDUP FOR NEBRASKA
NATIONAL WEATHER SERVICE OMAHA NE
600 AM CDT TUE APR 28 2015

NOTES: SATELLITE DATA IS BEING USED TO AUGMENT CLOUD COVER ABOVE
       12000 FEET.
       "FAIR" INDICATES FEW OR NO CLOUDS BELOW 12,000 FEET WITH NO
       SIGNIFICANT WEATHER AND/OR OBSTRUCTIONS TO VISIBILITY.

  * THESE STATIONS DO NOT REPORT WEATHER SUCH AS RAIN...SNOW OR FOG.

NEZ001>004-019>022-054>056-281200-
NEBRASKA PANHANDLE

CITY           SKY/WX    TMP DP  RH WIND       PRES   REMARKS
SCOTTSBLUFF    CLOUDY    43  32  65 E3        30.35R
ALLIANCE       CLOUDY    41  40  96 CALM      30.33S
CHADRON        CLOUDY    44  42  93 SW5       30.34F
KIMBALL        CLOUDY    42  41  96 N3        30.32S
SIDNEY         CLOUDY    42  40  92 N9        30.33F
$$

NEZ057>060-069>072-079>082-281200-
SOUTHWEST NEBRASKA

CITY           SKY/WX    TMP DP  RH WIND       PRES   REMARKS
NORTH PLATTE   CLEAR     40  38  93 NW5       30.30S
IMPERIAL       PTCLDY    41  37  86 CALM      30.31S
MCCOOK         PTCLDY    44  39  82 CALM      30.27S
$$

NEZ005>010-023>029-035>040-094-281200-
NORTH CENTRAL NEBRASKA

CITY           SKY/WX    TMP DP  RH WIND       PRES   REMARKS
VALENTINE      CLOUDY    40  38  93 NW6       30.33R
AINSWORTH      PTCLDY    40  38  95 NW6       30.31S
BROKEN BOW     CLEAR     43  40  89 N17       30.27R
O`NEILL        PTCLDY    43  42  97 NW13      30.27S FOG
ORD            CLEAR     41  39  93 NW9       30.26R
$$

NEZ041-046>049-061>064-073>077-083>087-281200-
SOUTH CENTRAL NEBRASKA

CITY           SKY/WX    TMP DP  RH WIND       PRES   REMARKS
GRAND ISLAND   CLEAR     42  39  89 NW5       30.25R
AURORA         CLEAR     41  39  92 N10       30.24R
HASTINGS       PTCLDY    42  39  89 N10       30.23R
KEARNEY *      CLEAR     43  37  81 NW10      30.26R
$$

NEZ011>018-030>034-042>045-281200-
NORTHEAST NEBRASKA

CITY           SKY/WX    TMP DP  RH WIND       PRES   REMARKS
NORFOLK        PTCLDY    44  40  85 NW9       30.23R
BLAIR          CLEAR     46  31  55 N5        30.18S
COLUMBUS *     CLEAR     45  36  70 N10       30.23S
FREMONT        CLEAR     39  34  84 W7        30.20R WCI  34
TEKAMAH        CLEAR     38  32  79 NW8       30.20R WCI  32
$$

NEZ050>053-065>068-078-088>093-281200-
SOUTHEAST NEBRASKA

CITY           SKY/WX    TMP DP  RH WIND       PRES   REMARKS
LINCOLN        CLEAR     40  34  79 CALM      30.21R
OMAHA EPPLEY   PTCLDY    39  36  89 N6        30.19R WCI  35
FALLS CITY     PTCLDY    42  36  79 NW6       30.17R
NEBRASKA CITY  CLEAR     46  30  54 N6        30.18R
PLATTSMOUTH    CLEAR     43  34  70 NW6       30.18S
$$

NEZ044-045-051>053-067-281200-
OMAHA AREA

CITY           SKY/WX    TMP DP  RH WIND       PRES   REMARKS
OMAHA EPPLEY   PTCLDY    39  36  89 N6        30.19R WCI  35
BLAIR          CLEAR     46  31  55 N5        30.18S
FREMONT        CLEAR     39  34  84 W7        30.20R WCI  34
OFFUTT AFB     CLEAR     39  36  89 NW3       30.18R
PLATTSMOUTH    CLEAR     43  34  70 NW6       30.18S
WAHOO          FAIR      40  33  76 N9        30.20R WCI  34
$$



USA.gov is the U.S. government's official web portal to all federal, state and local government web resources and services.